Find Kuiper-00139

NORAD ID: 65765 Int'l Des: 2025-217 Owner: KUIP Country: US Constellation: kuiper operational
LEOCIRCULARSTARLINK_TYPE

リアルタイム位置

3D地球を読み込み中...

Kuiper-00139について

説明を読み込み中...

次回通過

Passes for default location (London). Set your location on the main map for personalized predictions.

高度履歴

Loading altitude history...

軌道要素

1 65765U 25217D 26107.29848455 .00004225 00000-0 33679-3 0 9991
2 65765 51.8842 216.9976 0008475 76.5975 283.5941 15.02248974 30818
Epoch: Apr 17, 2026 • Age: 13 hours

現在のステータス

高度 561.7 km
速度 7.58 km/s
衛星直下点 -7.32°S, 64.42°E
打ち上げ日 Sep 25, 2025
運用期間 0.5 years
タイプ internet

技術仕様

分類 Payload
質量 490.00 kg
乾燥質量 490.00 kg
総質量 490.00 kg
長さ 1.80 m
直径 0.70 m
スパン 5.00 m
形状 Box + 2 pan
製造者 KUIP
バスタイプ Kuiper
フェーズステータス In Orbit
所有者/国 KUIP/US

Most Searched